Terminal Aerodrome Forecast
Issued by NWS Goodland, KS

Home | Current Version | Previous Version | Text Only | Print | Product List | Glossary On
Versions: 1 2 3 4 5 6 7 8 9 10 11 12 13 14
000
FTUS43 KGLD 220530
TAFGLD
TAF
KGLD 220530Z 2206/2306 17012KT P6SM BKN080
     FM221500 18022G34KT P6SM SCT070 BKN150
     FM222300 17018G25KT P6SM VCTS BKN050CB
     FM230300 16015KT P6SM BKN080=

USA.gov is the U.S. government's official web portal to all federal, state and local government web resources and services.